EZY8605 EHAM-EDDF

Flight info

Callsign EZY8605
Flight time N/A
Altitude 35000
Route EDUPO Z739 MISGO DCT DIXAT DIXAT1A
Aircraft A320/M-SDE3FGHIRWY/LB1

Departure

Time 2026-05-05 19:24
Airport Amsterdam Airport Schiphol (EHAM)

Arrival

Time N/A
Airport Frankfurt Main Airport (EDDF)
Time Latitude Longitude Altitude Speed Heading
2026-05-05 19:02 52.31374 4.76749 -2 ft 0 kts 122°
2026-05-05 19:12 52.31380 4.76735 -2 ft 4 kts 122°
2026-05-05 19:12 52.31394 4.76697 -2 ft 4 kts 123°
2026-05-05 19:13 52.31406 4.76669 -2 ft 4 kts 126°
2026-05-05 19:13 52.31424 4.76639 -2 ft 4 kts 169°
2026-05-05 19:13 52.31446 4.76641 -2 ft 4 kts 213°
2026-05-05 19:13 52.31451 4.76647 -2 ft 0 kts 214°
2026-05-05 19:17 52.31426 4.76586 -2 ft 14 kts 257°
2026-05-05 19:17 52.31467 4.76445 -2 ft 15 kts 302°
2026-05-05 19:17 52.31525 4.76293 -2 ft 17 kts 298°
2026-05-05 19:17 52.31535 4.76095 -2 ft 18 kts 266°
2026-05-05 19:18 52.31528 4.75882 -2 ft 20 kts 267°
2026-05-05 19:18 52.31521 4.75650 -2 ft 21 kts 267°
2026-05-05 19:18 52.31511 4.75395 -3 ft 24 kts 265°
2026-05-05 19:18 52.31501 4.75116 -3 ft 26 kts 267°
2026-05-05 19:19 52.31492 4.74815 -2 ft 27 kts 267°
2026-05-05 19:19 52.31480 4.74495 -2 ft 29 kts 267°
2026-05-05 19:19 52.31453 4.74202 -2 ft 21 kts 233°
2026-05-05 19:19 52.31332 4.74128 -2 ft 18 kts 185°
2026-05-05 19:20 52.31180 4.74116 -2 ft 28 kts 184°
2026-05-05 19:20 52.30978 4.74097 -3 ft 30 kts 183°
2026-05-05 19:20 52.30766 4.74078 -2 ft 30 kts 183°
2026-05-05 19:20 52.30551 4.74058 -2 ft 31 kts 183°
2026-05-05 19:21 52.30386 4.74049 -2 ft 11 kts 169°
2026-05-05 19:21 52.30326 4.74065 -2 ft 6 kts 227°
2026-05-05 19:21 52.30263 4.73971 -2 ft 15 kts 218°
2026-05-05 19:21 52.30232 4.73932 -3 ft 0 kts 217°
2026-05-05 19:23 52.30204 4.73891 -3 ft 11 kts 229°
2026-05-05 19:23 52.30224 4.73748 -4 ft 19 kts 334°
2026-05-05 19:23 52.30385 4.73754 -5 ft 34 kts
2026-05-05 19:23 52.30873 4.73799 -2 ft 104 kts
2026-05-05 19:24 52.31789 4.73885 2 ft 156 kts
2026-05-05 19:24 52.32881 4.74049 641 ft 159 kts
2026-05-05 19:24 52.33916 4.74584 1604 ft 150 kts 24°
2026-05-05 19:24 52.34909 4.75216 2201 ft 164 kts 22°
2026-05-05 19:25 52.36051 4.75900 2583 ft 186 kts 21°
2026-05-05 19:25 52.37340 4.76690 2960 ft 210 kts 26°
2026-05-05 19:25 52.38575 4.78179 3474 ft 234 kts 45°
2026-05-05 19:25 52.39742 4.80144 4310 ft 245 kts 45°
2026-05-05 19:26 52.40940 4.82185 5267 ft 252 kts 47°
2026-05-05 19:26 52.41904 4.84649 6168 ft 264 kts 65°
2026-05-05 19:26 52.42368 4.87607 7020 ft 274 kts 84°
2026-05-05 19:26 52.42391 4.90768 7944 ft 280 kts 89°
2026-05-05 19:27 52.42375 4.93982 8890 ft 285 kts 93°
2026-05-05 19:27 52.42161 4.96114 9492 ft 290 kts 105°
2026-05-05 19:27 52.40942 5.00117 10473 ft 306 kts 128°
2026-05-05 19:27 52.39323 5.02564 10810 ft 330 kts 145°
2026-05-05 19:28 52.38042 5.04022 11017 ft 346 kts 146°
2026-05-05 19:28 52.35346 5.07076 11789 ft 362 kts 145°
2026-05-05 19:28 52.33329 5.09594 12534 ft 368 kts 138°
2026-05-05 19:28 52.31557 5.12618 12828 ft 369 kts 132°
2026-05-05 19:29 52.29846 5.15744 12903 ft 369 kts 131°
2026-05-05 19:29 52.28691 5.17863 12915 ft 369 kts 131°
2026-05-05 19:29 52.26976 5.21005 13177 ft 373 kts 131°
2026-05-05 19:29 52.25240 5.24172 14041 ft 375 kts 131°
2026-05-05 19:30 52.23629 5.27465 14778 ft 378 kts 125°
2026-05-05 19:30 52.22111 5.30980 15506 ft 380 kts 125°
2026-05-05 19:30 52.20582 5.34515 16220 ft 383 kts 125°
2026-05-05 19:30 52.19041 5.38073 16912 ft 386 kts 125°
2026-05-05 19:31 52.17482 5.41661 17584 ft 389 kts 125°
2026-05-05 19:31 52.15910 5.45272 18241 ft 392 kts 125°
2026-05-05 19:31 52.14328 5.48895 18818 ft 394 kts 126°
2026-05-05 19:31 52.12732 5.52549 19388 ft 397 kts 126°
2026-05-05 19:32 52.11124 5.56227 19940 ft 400 kts 127°
2026-05-05 19:32 52.09507 5.59918 20495 ft 403 kts 127°
2026-05-05 19:32 52.07874 5.63641 21026 ft 406 kts 127°
2026-05-05 19:32 52.06219 5.67374 21551 ft 408 kts 129°
2026-05-05 19:33 52.04376 5.70891 22060 ft 411 kts 133°
2026-05-05 19:33 52.02491 5.74405 22581 ft 414 kts 133°
2026-05-05 19:33 52.00594 5.77934 23100 ft 416 kts 133°
2026-05-05 19:33 51.98682 5.81486 23590 ft 419 kts 133°
2026-05-05 19:34 51.96761 5.85054 24013 ft 421 kts 133°
2026-05-05 19:34 51.94834 5.88637 24442 ft 423 kts 133°
2026-05-05 19:34 51.92905 5.92237 24865 ft 425 kts 133°
2026-05-05 19:35 51.89012 5.99500 25703 ft 428 kts 133°
2026-05-05 19:35 51.87055 6.03142 26118 ft 430 kts 133°
2026-05-05 19:35 51.85087 6.06801 26512 ft 432 kts 133°
2026-05-05 19:35 51.83105 6.10472 26885 ft 434 kts 133°
2026-05-05 19:36 51.81111 6.14144 27259 ft 436 kts 133°
2026-05-05 19:36 51.79101 6.17822 27636 ft 437 kts 133°
2026-05-05 19:36 51.77081 6.21507 28017 ft 439 kts 133°
2026-05-05 19:36 51.75075 6.25159 28361 ft 441 kts 133°
2026-05-05 19:37 51.73037 6.28871 28722 ft 442 kts 133°
2026-05-05 19:37 51.71000 6.32580 29068 ft 444 kts 133°
2026-05-05 19:37 51.68942 6.36322 29438 ft 445 kts 133°
2026-05-05 19:37 51.66896 6.40040 29938 ft 442 kts 133°
2026-05-05 19:38 51.64857 6.43739 30378 ft 440 kts 133°
2026-05-05 19:38 51.62835 6.47402 30831 ft 437 kts 134°
2026-05-05 19:38 51.60815 6.51055 31276 ft 435 kts 134°
2026-05-05 19:38 51.58810 6.54675 31721 ft 433 kts 134°
2026-05-05 19:39 51.56813 6.58280 32166 ft 431 kts 134°
2026-05-05 19:39 51.54824 6.61865 32613 ft 428 kts 134°
2026-05-05 19:39 51.52843 6.65428 33062 ft 426 kts 134°
2026-05-05 19:39 51.50877 6.68961 33502 ft 424 kts 134°
2026-05-05 19:40 51.48917 6.72483 33929 ft 422 kts 134°
2026-05-05 19:40 51.46963 6.75988 34260 ft 421 kts 134°
2026-05-05 19:40 51.45003 6.79494 34537 ft 422 kts 134°
2026-05-05 19:40 51.43034 6.83007 34773 ft 424 kts 135°
2026-05-05 19:41 51.41063 6.86519 34852 ft 425 kts 134°
2026-05-05 19:41 51.37252 6.93724 34858 ft 427 kts 131°
2026-05-05 19:42 51.33594 7.01234 34858 ft 428 kts 130°
2026-05-05 19:42 51.29941 7.08742 34852 ft 427 kts 131°